• In Latvia
  • List of Countries
  • For 7 days
  • Water Temperature
  • Satellite Maps
  • Weather Map
  • Weather Widgets
  • user-avatar
    Login

    Hourly Weather Nagano

    Today, 25 February, Sunday

    Time Temperature Precipitation Wind Pressure Humidity
    00:00 -3°C° 0 mm 1 mps 698 mmHg 78%
    01:00 -4°C° 0 mm 1 mps 698 mmHg 77%
    02:00 -4°C° 0 mm 1 mps 698 mmHg 76%
    03:00 -4°C° 0 mm 1 mps 697 mmHg 74%
    04:00 -4°C° 0 mm 1 mps 698 mmHg 73%
    05:00 -4°C° 0 mm 1 mps 698 mmHg 72%
    06:00 -4°C° 0 mm 1 mps 698 mmHg 71%
    07:00 -2°C° 0 mm 1 mps 698 mmHg 66%
    08:00 0°C° 0 mm 1 mps 699 mmHg 61%
    09:00 +1°C° 0 mm 1 mps 699 mmHg 55%
    10:00 +2°C° 0 mm 1 mps 699 mmHg 54%
    11:00 +4°C° 0 mm 1 mps 699 mmHg 52%
    12:00 +5°C° 0 mm 1 mps 698 mmHg 51%
    13:00 +5°C° 0 mm 1 mps 698 mmHg 52%
    14:00 +5°C° 0 mm 1 mps 698 mmHg 54%
    15:00 +5°C° 0 mm 1 mps 697 mmHg 55%
    16:00 +4°C° 0 mm 1 mps 697 mmHg 61%
    17:00 +2°C° 0 mm 1 mps 697 mmHg 66%
    18:00 +1°C° 0 mm 1 mps 697 mmHg 72%
    19:00 0°C° 0 mm 1 mps 697 mmHg 74%
    20:00 0°C° 0 mm 1 mps 697 mmHg 77%
    21:00 -2°C° 0 mm 0 mps 696 mmHg 79%
    22:00 -2°C° 0.1 mm 0 mps 696 mmHg 80%
    23:00 -2°C° 0.1 mm 0 mps 696 mmHg 80%

    Tomorrow, 26 February, Monday

    Time Temperature Precipitation Wind Pressure Humidity
    00:00 -2°C° 0.1 mm 0 mps 696 mmHg 81%
    01:00 -2°C° 0 mm 0 mps 696 mmHg 81%
    02:00 -1°C° 0 mm 1 mps 695 mmHg 82%
    03:00 -2°C° 0 mm 1 mps 695 mmHg 82%
    04:00 -2°C° 0 mm 1 mps 695 mmHg 82%
    05:00 -2°C° 0 mm 1 mps 695 mmHg 82%
    06:00 -2°C° 0 mm 1 mps 695 mmHg 81%
    07:00 0°C° 0 mm 1 mps 696 mmHg 75%
    08:00 +2°C° 0 mm 1 mps 696 mmHg 69%
    09:00 +3°C° 0 mm 1 mps 696 mmHg 62%
    10:00 +5°C° 0 mm 1 mps 696 mmHg 60%
    11:00 +6°C° 0 mm 1 mps 696 mmHg 57%
    12:00 +7°C° 0 mm 1 mps 696 mmHg 54%
    13:00 +6°C° 0 mm 2 mps 696 mmHg 55%
    14:00 +5°C° 0 mm 2 mps 696 mmHg 56%
    15:00 +5°C° 0 mm 2 mps 696 mmHg 57%
    16:00 +3°C° 0 mm 2 mps 696 mmHg 64%
    17:00 +3°C° 0 mm 1 mps 696 mmHg 71%
    18:00 +1°C° 0 mm 1 mps 696 mmHg 78%
    19:00 0°C° 0 mm 1 mps 696 mmHg 80%
    20:00 -1°C° 0 mm 1 mps 697 mmHg 81%
    21:00 -1°C° 0 mm 1 mps 697 mmHg 83%
    22:00 -2°C° 0 mm 1 mps 697 mmHg 82%
    23:00 -2°C° 0 mm 1 mps 697 mmHg 81%

    Day after tomorrow, 27 February, Tuesday

    Time Temperature Precipitation Wind Pressure Humidity
    00:00 -2°C° 0 mm 1 mps 697 mmHg 80%
    01:00 -2°C° 0 mm 1 mps 697 mmHg 78%
    02:00 -3°C° 0 mm 0 mps 697 mmHg 77%
    03:00 -3°C° 0 mm 0 mps 697 mmHg 75%
    04:00 -3°C° 0 mm 0 mps 697 mmHg 74%
    05:00 -2°C° 0 mm 1 mps 697 mmHg 74%
    06:00 -3°C° 0 mm 1 mps 697 mmHg 73%
    07:00 0°C° 0 mm 1 mps 697 mmHg 66%
    08:00 +2°C° 0 mm 1 mps 698 mmHg 59%
    09:00 +4°C° 0 mm 1 mps 698 mmHg 53%
    10:00 +5°C° 0 mm 1 mps 698 mmHg 50%
    11:00 +7°C° 0 mm 1 mps 698 mmHg 47%
    12:00 +7°C° 0 mm 2 mps 698 mmHg 44%
    13:00 +7°C° 0 mm 2 mps 698 mmHg 45%
    14:00 +7°C° 0 mm 2 mps 697 mmHg 46%
    15:00 +7°C° 0 mm 2 mps 697 mmHg 46%
    16:00 +5°C° 0 mm 2 mps 697 mmHg 53%
    17:00 +3°C° 0 mm 2 mps 696 mmHg 59%
    18:00 +2°C° 0 mm 1 mps 696 mmHg 65%
    19:00 +2°C° 0 mm 1 mps 696 mmHg 67%
    20:00 +1°C° 0 mm 1 mps 696 mmHg 69%
    21:00 0°C° 0 mm 1 mps 696 mmHg 70%
    22:00 0°C° 0 mm 1 mps 696 mmHg 71%
    23:00 0°C° 0 mm 1 mps 696 mmHg 71%

    28 February, Wednesday

    Time Temperature Precipitation Wind Pressure Humidity
    00:00 0°C° 0 mm 1 mps 696 mmHg 71%
    01:00 0°C° 0 mm 1 mps 695 mmHg 72%
    02:00 0°C° 0 mm 1 mps 695 mmHg 72%
    03:00 0°C° 0 mm 1 mps 695 mmHg 72%
    04:00 0°C° 0 mm 1 mps 695 mmHg 73%
    05:00 0°C° 0 mm 1 mps 696 mmHg 73%
    06:00 0°C° 0 mm 1 mps 696 mmHg 73%
    07:00 +2°C° 0 mm 1 mps 696 mmHg 69%
    08:00 +4°C° 0 mm 1 mps 697 mmHg 64%
    09:00 +6°C° 0 mm 1 mps 697 mmHg 60%
    10:00 +7°C° 0 mm 1 mps 697 mmHg 56%
    11:00 +9°C° 0 mm 1 mps 697 mmHg 52%
    12:00 +10°C° 0 mm 1 mps 697 mmHg 48%
    13:00 +10°C° 0 mm 1 mps 696 mmHg 50%
    14:00 +10°C° 0 mm 1 mps 695 mmHg 51%
    15:00 +10°C° 0 mm 1 mps 695 mmHg 53%
    16:00 +9°C° 0.1 mm 1 mps 694 mmHg 57%
    17:00 +7°C° 0.1 mm 1 mps 694 mmHg 61%
    18:00 +5°C° 0.1 mm 2 mps 693 mmHg 65%
    19:00 +4°C° 0.1 mm 2 mps 692 mmHg 66%
    20:00 +4°C° 0.1 mm 2 mps 692 mmHg 67%
    21:00 +4°C° 0.1 mm 2 mps 691 mmHg 67%
    22:00 +3°C° 0.8 mm 3 mps 689 mmHg 73%
    23:00 +3°C° 0.8 mm 3 mps 688 mmHg 78%

    1 March, Thursday

    Time Temperature Precipitation Wind Pressure Humidity
    00:00 +3°C° 0.8 mm 3 mps 686 mmHg 83%
    01:00 +3°C° 1.2 mm 3 mps 684 mmHg 84%
    02:00 +4°C° 1.2 mm 3 mps 683 mmHg 86%
    03:00 +4°C° 1.2 mm 3 mps 681 mmHg 87%
    04:00 +4°C° 2 mm 3 mps 680 mmHg 88%
    05:00 +5°C° 2 mm 3 mps 679 mmHg 90%
    06:00 +5°C° 2 mm 3 mps 677 mmHg 91%
    07:00 +7°C° 1 mm 3 mps 678 mmHg 88%
    08:00 +7°C° 1 mm 4 mps 678 mmHg 86%
    09:00 +8°C° 1 mm 5 mps 678 mmHg 83%
    10:00 +7°C° 0.2 mm 5 mps 679 mmHg 79%
    11:00 +7°C° 0.2 mm 6 mps 680 mmHg 74%
    12:00 +5°C° 0.2 mm 6 mps 680 mmHg 70%
    13:00 +5°C° 0.2 mm 6 mps 680 mmHg 68%
    14:00 +5°C° 0.2 mm 6 mps 680 mmHg 66%
    15:00 +5°C° 0.2 mm 6 mps 680 mmHg 64%
    16:00 +4°C° 0.2 mm 6 mps 681 mmHg 66%
    17:00 +3°C° 0.2 mm 6 mps 681 mmHg 68%
    18:00 +3°C° 0.2 mm 6 mps 682 mmHg 69%
    19:00 +2°C° 0.1 mm 6 mps 682 mmHg 69%
    20:00 0°C° 0.1 mm 5 mps 683 mmHg 69%
    21:00 -1°C° 0.1 mm 5 mps 684 mmHg 69%
    22:00 -2°C° 0.1 mm 5 mps 684 mmHg 68%
    23:00 -2°C° 0.1 mm 5 mps 685 mmHg 68%

    2 March, Friday

    Time Temperature Precipitation Wind Pressure Humidity
    00:00 -4°C° 0.1 mm 5 mps 685 mmHg 68%
    01:00 -3°C° 0.1 mm 4 mps 686 mmHg 68%
    02:00 -4°C° 0.1 mm 4 mps 686 mmHg 68%
    03:00 -4°C° 0.1 mm 4 mps 687 mmHg 68%
    04:00 -4°C° 0.1 mm 4 mps 687 mmHg 69%
    05:00 -4°C° 0.1 mm 3 mps 688 mmHg 70%
    06:00 -4°C° 0.1 mm 3 mps 689 mmHg 72%
    07:00 -2°C° 0 mm 3 mps 690 mmHg 68%
    08:00 -1°C° 0 mm 3 mps 691 mmHg 63%
    09:00 0°C° 0 mm 3 mps 692 mmHg 59%
    10:00 +1°C° 0 mm 3 mps 692 mmHg 57%
    11:00 +2°C° 0 mm 3 mps 693 mmHg 54%
    12:00 +3°C° 0 mm 3 mps 693 mmHg 51%
    13:00 +4°C° 0 mm 2 mps 693 mmHg 51%
    14:00 +5°C° 0 mm 2 mps 693 mmHg 51%
    15:00 +5°C° 0 mm 2 mps 693 mmHg 51%
    16:00 +4°C° 0 mm 1 mps 693 mmHg 58%
    17:00 +2°C° 0 mm 1 mps 693 mmHg 65%
    18:00 0°C° 0 mm 1 mps 693 mmHg 72%
    19:00 0°C° 0 mm 1 mps 693 mmHg 72%
    20:00 0°C° 0 mm 1 mps 694 mmHg 73%
    21:00 0°C° 0 mm 1 mps 694 mmHg 73%
    22:00 0°C° 0 mm 1 mps 694 mmHg 72%
    23:00 0°C° 0 mm 1 mps 693 mmHg 71%
    Show more